Flag for Germany Weather past 2 weeks in Augsburg, Bavaria, Germany

Now
34 °F

Overcast.


Feels Like: 30 °F
Forecast: 24 / 32 °F
Wind: 5 mph from West

Location: Augsburg

Current Time: Dec 26, 2014 at 1:29:53 PM

Latest Report: Dec 26, 2014 at 1:00 PM


Visibility: 10 mi

Pressure: 30.41 "Hg

Humidity: 86%

Dew point: 31 °F

Location of AugsburgLocation

Historic Weather in Augsburg — Graph

°F

Augsburg temperature yesterday

Maximum temperature yesterday: 46 °F (at 12:00 AM)
Minimum temperature yesterday: 34 °F (at 7:00 PM)
Average temperature yesterday: 40 °F

Past Weeks' High & Low Weather Summary

 TemperatureHumidityPressure
High54 °F (Dec 19, 1:00 PM)100% (Dec 16, 1:00 AM)30.55 "Hg (Dec 16, 1:00 AM)
Low26 °F (Dec 24, 4:00 AM)40% (Dec 23, 12:00 PM)29.80 "Hg (Dec 12, 9:00 PM)
Average42 °F80%30.14 "Hg
* Reported Dec 11 12:00 Noon — Dec 26 12:00 Noon, Augsburg, Weather by CustomWeather, © 2014

Note: Actual official high and low records may vary slightly from our data, if they occured in-between our weather recording intervals... More about our weather records

Advertising

Augsburg weather history for previous 24 hours

 ConditionsComfort  
Time TempWeatherWind HumidityBarometerVisibility
12:00 PM
Dec 26
34 °FSunny.5 mph85%30.42 "Hg8 mi
11:00 AM33 °FScattered clouds.2 mph90%30.44 "Hg11 mi
9:00 AM32 °FOvercast.2 mph95%30.43 "Hg12 mi
8:00 AM32 °FOvercast.3 mph94%30.42 "Hg11 mi
7:00 AM32 °FOvercast.2 mph93%30.40 "Hg16 mi
6:00 AM32 °FOvercast.1 mph96%30.40 "Hg22 mi
5:00 AM33 °FSnow flurries. Low clouds.2 mph99%30.39 "Hg22 mi
3:00 AM33 °FLight snow. Low clouds.6 mph99%30.39 "Hg3 mi
2:00 AM35 °FLight rain. Passing clouds.7 mph89%30.37 "Hg19 mi
1:00 AM36 °FLight snow. Low clouds.7 mph84%30.37 "Hg7 mi
12:00 AM36 °FDrizzle. Low clouds.8 mph83%30.37 "Hg22 mi
11:00 PM
Dec 25
37 °FOvercast.7 mph75%30.37 "Hg40 mi
9:00 PM37 °FLow clouds.5 mph76%30.37 "Hg34 mi
8:00 PM35 °FOvercast.3 mph80%30.37 "Hg28 mi
7:00 PM34 °FPassing clouds.2 mph82%30.37 "Hg28 mi
6:00 PM36 °FClear.6 mph73%30.34 "Hg43 mi
5:00 PM38 °FPassing clouds.6 mph73%30.32 "Hg43 mi
3:00 PM39 °FOvercast.8 mph71%30.31 "Hg43 mi
2:00 PM39 °FOvercast.7 mph75%30.30 "Hg34 mi
1:00 PM39 °FOvercast.8 mph76%30.30 "Hg37 mi
Weather by CustomWeather, © 2014

See weather overviewHow to use our weather pages